TimeEST,TemperatureF,Dew PointF,Humidity,Sea Level PressureIn,VisibilityMPH,Wind Direction,Wind SpeedMPH,Gust SpeedMPH,PrecipitationIn,Events,Conditions,WindDirDegrees,DateUTC
12:55 AM,19.2,-8.7,29,30.31,10.0,WNW,12.7,-,N/A,,Partly Cloudy,290,2013-02-07 05:55:00
1:55 AM,18.0,-8.1,31,30.33,10.0,WNW,10.4,-,N/A,,Partly Cloudy,290,2013-02-07 06:55:00
2:55 AM,16.7,-7.4,34,30.34,10.0,WNW,8.1,-,N/A,,Partly Cloudy,300,2013-02-07 07:55:00
3:55 AM,16.7,-7.4,34,30.37,10.0,West,11.5,-,N/A,,Partly Cloudy,280,2013-02-07 08:55:00
4:55 AM,16.0,-6.0,38,30.41,10.0,West,8.1,-,N/A,,Partly Cloudy,280,2013-02-07 09:55:00
5:55 AM,15.8,-6.3,37,30.41,10.0,West,13.8,-,N/A,,Scattered Clouds,270,2013-02-07 10:55:00
6:55 AM,14.7,-4.5,42,30.43,10.0,West,11.5,-,N/A,,Mostly Cloudy,260,2013-02-07 11:55:00
7:55 AM,16.0,-6.2,37,30.48,10.0,WNW,11.5,-,N/A,,Mostly Cloudy,290,2013-02-07 12:55:00
8:55 AM,18.1,-6.3,34,30.50,10.0,WNW,11.5,19.6,N/A,,Partly Cloudy,300,2013-02-07 13:55:00
9:55 AM,19.9,-6.5,31,30.51,10.0,NW,11.5,-,N/A,,Partly Cloudy,320,2013-02-07 14:55:00
10:55 AM,22.3,-6.7,28,30.53,10.0,NW,10.4,-,N/A,,Mostly Cloudy,310,2013-02-07 15:55:00
11:55 AM,24.1,-7.1,25,30.51,10.0,WNW,9.2,-,N/A,,Scattered Clouds,300,2013-02-07 16:55:00
12:55 PM,25.7,-7.6,23,30.49,10.0,WSW,6.9,-,N/A,,Mostly Cloudy,250,2013-02-07 17:55:00
1:55 PM,26.1,-8.5,22,30.49,10.0,WSW,5.8,-,N/A,,Mostly Cloudy,240,2013-02-07 18:55:00
2:55 PM,26.6,-9.2,21,30.48,10.0,West,5.8,-,N/A,,Mostly Cloudy,280,2013-02-07 19:55:00
3:55 PM,25.5,-11.0,20,30.48,10.0,NW,6.9,-,N/A,,Mostly Cloudy,310,2013-02-07 20:55:00
4:55 PM,23.0,-11.2,22,30.49,10.0,NNW,3.5,-,N/A,,Mostly Cloudy,330,2013-02-07 21:55:00
5:55 PM,22.5,-10.3,23,30.50,10.0,NW,3.5,-,N/A,,Overcast,320,2013-02-07 22:55:00
6:55 PM,21.4,-8.0,27,30.52,10.0,Calm,Calm,-,N/A,,Overcast,0,2013-02-07 23:55:00
7:55 PM,22.3,-4.0,32,30.53,10.0,Calm,Calm,-,N/A,,Overcast,0,2013-02-08 00:55:00
8:55 PM,23.4,-5.8,28,30.52,10.0,NNE,3.5,-,N/A,,Overcast,30,2013-02-08 01:55:00
9:55 PM,23.2,-0.9,35,30.51,10.0,NE,3.5,-,N/A,,Overcast,50,2013-02-08 02:55:00
10:55 PM,23.2,3.9,44,30.50,10.0,NE,5.8,-,N/A,,Overcast,40,2013-02-08 03:55:00
11:55 PM,22.8,7.7,52,30.51,10.0,North,4.6,-,N/A,,Overcast,360,2013-02-08 04:55:00